Location: Central Falls
(41.8900°N, 71.3929°W)
Time: 13:28:37
(UTC+00:00)

Vanguard 2 Rocket - Pass Details

Date: 03 December 2023
Orbit: 554 x 3310 km, 32.9° (Epoch: 22 February)

Event Time Altitude Azimuth Distance (km) Brightness Sun altitude
Rises 03:20:14 0° 278° (W) 6,750 11.6 -64.7°
Reaches altitude 10° 03:28:11 10° 258° (WSW) 5,154 10.8 -65.7°
Enters shadow 03:29:55 12° 252° (WSW) 4,852 10.6 -65.9°
